Location: Firdgum
(53.2488°N, 5.5615°E)
Time: 10:59:01
(UTC+00:00)

Cosmos 2279 Rocket - Pass Details

Date: 08 December 2019
Orbit: 964 x 978 km, 82.9° (Epoch: 21 January)

Event Time Altitude Azimuth Distance (km) Brightness Sun altitude
Rises 05:31:44 0° 180° (S) 3,644 7.2 -17.7°
Reaches altitude 10° 05:34:13 10° 179° (S) 2,703 6.5 -17.3°
Maximum altitude 05:40:22 72° 96° (E) 1,021 4.3 -16.4°
Drops below altitude 10° 05:46:36 10° 14° (NNE) 2,730 6.3 -15.5°
Sets 05:49:08 0° 12° (NNE) 3,684 7.0 -15.2°
